Showing default

BLUE RING PATHFINDER, 62720

Orbit data source: Space-Track

BLUE RING PATHFINDER, 62720 is a payload satellite owned by Blue Origin (US) in HEO that was launched on Thu, 16 Jan 2025 UTC via an NEW GLENN launch vehicle from the Air Force Eastern Test Range (AFETR). Payload-class satellites include a variety of spacecraft equipped with specific instruments for various scientific and technological missions. These include communications satellites like Starlink; space stations such as the ISS; scientific satellites like the Hubble; Earth observation satellites from companies like Planet Labs, Umbra, and HawkEye 360; GPS; miniature CubeSats for education and research; and military/defense satellites.

Loading next visibility...
Identifier
62720, 2025-011A
Orbit
HEO
Country
Flag of USUS
Related business
Manufacturer
Blue Origin
Mission
Non-operational Commercial Technology
Bus & Motor
BLUE RING, Unknown motor
Mass
~33,980 kg wet, ~3,980 kg dry
Launch date (UTC)
2025-01-16 (10 months ago)
Launch vehicle
NEW GLENN
Launch site
Air Force Eastern Test Range (AFETR)
Object type
Payload
Rocket body
Debris
Shape & HBR
Ann Cyl, 14.5 m
Radar Cross Section
4.712 m², Large (>1 m²)

Expand to show TLE details & history
Last TLE update: 12 hours ago

TLE from 12 hours ago
0 BLUE RING PATHFINDER
1 62720U 25011A   25310.57641005 -.00000054  00000-0  00000+0 0  9994
2 62720  29.8677 261.3858 4876526 122.6674 293.8837  3.84307828 11316
Epoch: 2025-11-06T13:50Z
TLE epoch observation values (Epoch: 2025-11-06T13:50:01.828Z)
Latitude
-0°
Longitude
7.80615°
Altitude
11,432.153 km
Speed
4.649 km/s
True Right ascension
17h 25m 23s
True Declination
0° 00' 00"
Sunlit
Object was in daylight at epoch
Visualization orbit readout
Latitude
Unknown
Longitude
Unknown
Altitude
Unknown
Speed
Unknown
Apparent Right ascension
Unknown
Apparent Declination
Unknown
Sunlit
N/A
Visualization observer readout
Local Sidereal Time
22:10:56
Azimuth
Unknown
Elevation
Unknown
Doppler factor
Unknown
Orbital elements
Apogee altitude
19,237.887 km
Perigee altitude
2,444.019 km
Semi-major axis
17,219.09 km
Eccentricity
0.48765
Inclination
29.8677°
RAAN
261.3858°
Arg. of periapsis
122.6674°
True anomaly
237.38879°
Mean anomaly
293.8837°
Eccentric anomaly
266.01095°
Mean motion
0.96057 °/min
Orbital period
374.78 mins
BSTAR
0
Loading maneuver chart data...
Computing Atmospheric mass density...
Loading historical data...
Loading historical data...
Loading historical data...
Loading historical data...
Loading historical data...
Loading historical data...
Loading historical data...
Other satellites on launch #11 in the year 2025 (2025-01-16 UTC)

Documentation

Showing up to 5 results
|